Content
SEND FEEDBACK

Daily
Averages
Monthly
Summary
United States of America

HERMOSA, SOUTH DAKOTA


Home > North America > United States > South Dakota
Elevation: 3300 feet     Latitude: 43 50N     Longitude: 103 11W

WEATHER
 
SELECT A DAY
Number of Records: 200,374;   Date Range: 1/1/95 - 8/12/14
 
SHARE

PRINT THIS DATA

[ ← Previous Day ]
WEATHER ALMANAC - MARCH 28, 2013
[ Next Day → ]
[ °C ]   °F
Weather ElementAverageHighLow
Temperature45.5 °F61 °F (1:52 pm)26.1 °F (6:52 am)
Dewpoint25.4 °F28.9 °F (6:52 pm)19.4 °F (5:52 am)
Humidity49.3 %78 % (6:52 am)24 % (3:52 pm)
Barometer30.08 in30.11 in (8:52 pm)30.01 in (5:52 am)
Wind Speed3.6 mph8.1 mph (2:52 pm)
Weather ElementAverage
Visibility10 mi
Wind DirectionSSE (147.4 °)

Weather ElementTotal
Precipitation---
Heating Degree Days21.5 (Base 65)
Averaged from 23 records on March 28, 2013
WEATHER CONDITIONS BREAKOUT
WIND DIRECTION BREAKOUT
WEATHER BY HOUR - MARCH 28, 2013
[ °C ]   °F
Local TimeTemperatureDewpointHumidityBarometerVisibilityWind DirectionWind SpeedGust SpeedPrecipitationEventsConditions
1:52 AM35.1 °F23.0 °F61 %30.08 in10.0 miCalmOvercast
2:52 AM30.2 °F21.2 °F69 %30.02 in10.0 miNW (310°)5.8 mphPartly Cloudy
3:52 AM30.9 °F23.0 °F72 %30.06 in10.0 miNNW (340°)4.6 mphMostly Cloudy
4:52 AM30.0 °F23.0 °F75 %30.05 in10.0 miCalmClear
5:52 AM26.6 °F19.4 °F74 %30.01 in10.0 miCalmClear
6:52 AM26.1 °F19.9 °F78 %30.09 in10.0 miNW (320°)3.5 mphClear
7:52 AM37.0 °F27.0 °F67 %30.09 in10.0 miCalmClear
8:52 AM42.1 °F28.0 °F58 %30.10 in10.0 miSE (140°)3.5 mphClear
9:52 AM48.9 °F27.0 °F43 %30.10 in10.0 miNorth (350°)4.6 mphClear
10:52 AM51.1 °F28.0 °F41 %30.10 in10.0 miNorth (360°)6.9 mphClear
11:52 AM55.0 °F27.0 °F34 %30.09 in10.0 miNorth (10°)5.8 mphClear
12:52 PM57.9 °F28.0 °F32 %30.09 in10.0 miCalmClear
1:52 PM61.0 °F25.0 °F25 %30.07 in10.0 miNE (50°)4.6 mphClear
2:52 PM60.1 °F26.1 °F27 %30.08 in10.0 miSSE (150°)8.1 mphClear
3:52 PM61.0 °F24.1 °F24 %30.06 in10.0 miSE (140°)4.6 mphClear
4:52 PM61.0 °F24.1 °F24 %30.06 in10.0 miSE (130°)5.8 mphClear
5:52 PM60.1 °F25.0 °F26 %30.08 in10.0 miSE (130°)6.9 mphClear
6:52 PM53.1 °F28.9 °F40 %30.10 in10.0 miESE (120°)5.8 mphClear
7:52 PM48.0 °F28.0 °F46 %30.10 in10.0 miCalmClear
8:52 PM44.1 °F27.0 °F51 %30.11 in10.0 miCalmClear
9:52 PM41.0 °F27.0 °F57 %30.11 in10.0 miWest (260°)3.5 mphClear
10:52 PM44.1 °F28.0 °F53 %30.10 in10.0 miWNW (290°)4.6 mphOvercast
11:52 PM41.0 °F27.0 °F57 %30.10 in10.0 miWNW (290°)4.6 mphMostly Cloudy
Hourly data recorded from KRAP, located miles away from Hermosa, South Dakota







STORIES FROM OUR PARTNERS